#timestamp,LO_Frequency,Hit 
1500663615.6,286047253.8,N
1500663635.4,286047253.7,N
1500663655.2,286047249.2,N
1500663675.1,286047238.8,N
1500663676.0,286047238.8,N
1500663695.8,286047227.0,N
1500663715.6,286047227.5,N
1500663735.5,286047229.5,N
1500663755.3,286047235.0,N
1500663775.1,286047234.6,N
1500663795.9,286047238.6,N
1500663815.7,286047240.3,N
1500663835.5,286047229.1,N
1500663855.4,286047224.7,N
1500663875.2,286047225.8,N
1500663895.0,286047247.0,N
1500663895.9,286047247.0,N
1500663915.8,286047234.6,N
1500663935.6,286047224.6,N
1500663955.4,286047228.4,N
1500663975.3,286047222.0,N
1500663995.1,286047220.0,N
1500663996.0,286047220.0,N
1500664015.8,286047211.5,N
1500664035.7,286047204.7,N
1500664055.5,286047200.7,N
1500664075.3,286047200.2,N
1500664095.2,286047195.7,N
1500664115.9,286047191.7,N
1500664135.7,286047184.1,N
1500664155.6,286047180.7,N
1500664175.4,286047176.6,N
1500664195.2,286047174.9,N
1500664215.0,286047180.1,N
1500664216.0,286047180.1,N
1500664235.8,286047187.5,N
1500664255.1,286047185.3,N
1500664256.0,286047185.3,N
1500664275.8,286047193.6,N
1500664295.6,286047188.9,N
1500664315.5,286047187.1,N
1500664335.3,286047187.1,N
1500664355.1,286047185.0,N
1500664375.9,286047177.8,N
1500664395.7,286047174.3,N
1500664415.5,286047172.5,N
1500664435.4,286047171.4,N
1500664455.2,286047166.4,N
1500664475.0,286047164.0,N
1500664475.9,286047164.0,N
1500664495.8,286047162.1,N
1500664515.6,286047159.3,N
1500664535.5,286047155.5,N
1500664555.3,286047153.8,N
1500664575.2,286047154.2,N
1500664595.9,286047156.6,N
1500664615.7,286047161.9,N
1500664635.6,286047159.6,N
1500664655.4,286047164.4,N
1500664675.2,286047158.7,N
1500664695.1,286047156.6,N
1500664696.0,286047156.6,N
1500664715.8,286047152.5,N
1500664735.6,286047147.1,N
1500664755.5,286047152.5,N
1500664775.3,286047160.0,N
1500664795.1,286047163.1,N
1500664815.8,286047161.8,N
1500664835.7,286047166.2,N
1500664855.5,286047164.8,N
1500664875.3,286047173.1,N
1500664895.2,286047164.9,N
1500664915.0,286047163.9,N
1500664915.9,286047163.9,N
1500664935.7,286047168.0,N
1500664955.6,286047166.7,N
1500664975.4,286047161.7,N
1500664995.2,286047160.8,N
1500665015.1,286047161.2,N
1500665016.0,286047161.2,N
1500665035.8,286047155.9,N
1500665055.6,286047154.8,N
1500665075.5,286047151.4,N
1500665095.3,286047148.8,N
1500665115.1,286047148.2,N
1500665135.9,286047146.2,N
1500665155.7,286047144.0,N
1500665175.5,286047138.9,N
1500665195.4,286047139.2,N
1500665215.2,286047143.3,N
1500665235.0,286047139.3,N
1500665235.9,286047139.3,N
1500665255.8,286047143.0,N
1500665275.6,286047138.4,N
1500665295.4,286047137.0,N
1500665315.3,286047147.0,N
1500665335.1,286047149.8,N
1500665336.0,286047149.8,N
1500665355.8,286047146.5,N
1500665375.7,286047145.5,N
1500665395.5,286047146.7,N
1500665415.3,286047142.5,N
1500665435.1,286047149.7,N
1500665455.9,286047155.0,N
1500665475.7,286047162.0,N
1500665495.5,286047159.2,N
1500665515.4,286047154.8,N
1500665535.2,286047150.7,N
1500665555.0,286047149.4,N
1500665555.9,286047149.4,N
1500665575.8,286047144.3,N
1500665595.6,286047140.7,N
1500665615.4,286047143.0,N
1500665635.3,286047143.4,N
1500665655.1,286047143.1,N
1500665656.0,286047143.1,N
1500665675.8,286047139.2,N
1500665695.7,286047139.7,N
1500665715.5,286047138.3,N
1500665735.3,286047135.0,N
1500665755.2,286047135.1,N
1500665775.9,286047134.1,N
1500665795.7,286047137.0,N
1500665815.6,286047135.8,N
1500665835.4,286047134.5,N
1500665855.2,286047133.9,N
1500665875.1,286047130.1,N
1500665876.0,286047130.1,N
1500665895.8,286047130.2,N
1500665915.6,286047126.6,N
1500665935.5,286047124.7,N
1500665955.3,286047121.8,N
1500665975.1,286047122.6,N
1500665995.8,286047121.2,N
1500666015.7,286047116.7,N
1500666035.5,286047114.0,N
1500666055.3,286047113.1,N
1500666075.2,286047110.3,N
1500666095.0,286047112.8,N
1500666095.9,286047112.8,N
1500666115.7,286047114.2,N
1500666135.6,286047114.0,N
1500666155.4,286047112.7,N
1500666175.2,286047112.6,N
1500666195.1,286047113.6,N
1500666196.0,286047113.6,N
1500666215.8,286047113.8,N
1500666235.6,286047113.7,N
1500666255.5,286047112.4,N
1500666275.3,286047113.9,N
1500666295.1,286047115.4,N
1500666315.9,286047115.5,N
1500666335.7,286047116.4,N
1500666355.5,286047113.6,N
1500666375.4,286047112.8,N
1500666395.2,286047111.9,N
1500666415.0,286047113.2,N
1500666415.9,286047113.2,N
1500666435.8,286047113.0,N
1500666455.6,286047116.4,N
1500666475.4,286047114.7,N
1500666495.3,286047115.6,N
1500666515.1,286047114.5,N
1500666516.0,286047114.5,N
1500666535.8,286047112.8,N
1500666555.7,286047109.2,N
1500666575.5,286047111.0,N
1500666595.3,286047111.1,N
1500666615.2,286047113.2,N
1500666635.9,286047112.5,N
1500666655.7,286047113.9,N
1500666675.5,286047115.0,N
1500666695.4,286047117.2,N
1500666715.2,286047116.9,N
1500666735.0,286047120.3,N
1500666735.9,286047120.3,N
1500666755.8,286047116.7,N
1500666775.6,286047119.2,N
1500666795.4,286047125.2,N
1500666815.3,286047123.6,N
1500666835.1,286047123.4,N
1500666855.8,286047124.7,N
1500666875.7,286047123.5,N
1500666895.5,286047125.8,N
1500666915.3,286047122.8,N
1500666935.2,286047120.7,N
1500666955.9,286047122.4,N
1500666975.7,286047123.6,N
1500666995.6,286047125.4,N
1500667015.4,286047125.7,N
1500667035.2,286047124.7,N
1500667055.1,286047125.1,N
1500667056.0,286047125.1,N
1500667075.8,286047123.4,N
1500667095.6,286047124.4,N
1500667115.5,286047123.4,N
1500667135.3,286047121.7,N
1500667155.1,286047121.6,N
1500667175.9,286047120.7,N
1500667195.7,286047116.8,N
